Location: Cluj-Napoca
(46.7712°N, 23.6236°E)
Time: 18:55:27
(UTC+03:00)

ISS - Pass Details

Date: 27 May 2020
Orbit: 417 x 420 km, 51.6° (Epoch: 26 May)

Event Time Altitude Azimuth Distance (km) Brightness Sun altitude
Rises 00:10:33 0° 294° (WNW) 2,368 0.7 -20.0°
Reaches altitude 10° 00:12:42 10° 288° (WNW) 1,502 -0.5 -20.1°
Enters shadow 00:15:06 36° 256° (WSW) 685 -2.7 -20.2°
